Time,TemperatureF,DewpointF,PressureIn,WindDirection,WindDirectionDegrees,WindSpeedMPH,WindSpeedGustMPH,Humidity,HourlyPrecipIn,Conditions,Clouds,dailyrainin,SoftwareType,DateUTC
2017-06-27 00:00:00,59.2,53.4,30.10,NNW,346,3.0,3.0,81,0.00,,,0.00,Wunderground v.1.15,2017-06-27 05:00:00,
2017-06-27 00:06:00,58.7,53.2,30.10,NNW,348,3.0,4.0,82,0.00,,,0.00,Wunderground v.1.15,2017-06-27 05:06:00,
2017-06-27 00:12:00,58.4,53.3,30.10,NNW,348,2.0,3.0,83,0.00,,,0.00,Wunderground v.1.15,2017-06-27 05:12:00,
2017-06-27 00:18:00,58.1,53.0,30.10,NNW,348,2.0,4.0,83,0.00,,,0.00,Wunderground v.1.15,2017-06-27 05:18:00,
2017-06-27 00:24:00,58.0,53.2,30.10,NNW,348,2.0,3.0,84,0.00,,,0.00,Wunderground v.1.15,2017-06-27 05:24:00,
2017-06-27 00:30:00,57.9,53.1,30.11,NNW,347,1.0,1.0,84,0.00,,,0.00,Wunderground v.1.15,2017-06-27 05:30:00,
2017-06-27 00:36:00,57.8,53.0,30.11,NNW,341,0.0,2.0,84,0.00,,,0.00,Wunderground v.1.15,2017-06-27 05:36:00,
2017-06-27 00:42:00,57.7,53.2,30.11,NNW,346,1.0,3.0,85,0.00,,,0.00,Wunderground v.1.15,2017-06-27 05:42:00,
2017-06-27 00:48:00,57.7,53.2,30.11,NNW,348,2.0,4.0,85,0.00,,,0.00,Wunderground v.1.15,2017-06-27 05:48:00,
2017-06-27 00:54:00,57.7,53.2,30.11,NNW,348,1.0,2.0,85,0.00,,,0.00,Wunderground v.1.15,2017-06-27 05:54:00,
2017-06-27 01:00:00,57.7,53.2,30.11,NNW,346,0.0,0.0,85,0.00,,,0.00,Wunderground v.1.15,2017-06-27 06:00:00,
2017-06-27 01:06:00,57.6,53.1,30.10,NNW,348,0.0,0.0,85,0.00,,,0.00,Wunderground v.1.15,2017-06-27 06:06:00,
2017-06-27 01:12:00,57.5,53.0,30.10,NNW,344,0.0,0.0,85,0.00,,,0.00,Wunderground v.1.15,2017-06-27 06:12:00,
2017-06-27 01:18:00,57.5,53.0,30.10,NNW,346,0.0,0.0,85,0.00,,,0.00,Wunderground v.1.15,2017-06-27 06:18:00,
2017-06-27 01:24:00,57.5,53.3,30.10,NNW,348,1.0,2.0,86,0.00,,,0.00,Wunderground v.1.15,2017-06-27 06:24:00,
2017-06-27 01:30:00,57.4,53.2,30.10,North,349,1.0,1.0,86,0.00,,,0.00,Wunderground v.1.15,2017-06-27 06:30:00,
2017-06-27 01:35:00,57.3,53.1,30.10,NNW,348,0.0,1.0,86,0.00,,,0.00,Wunderground v.1.15,2017-06-27 06:35:00,
2017-06-27 01:41:00,57.3,53.1,30.10,NNW,347,0.0,0.0,86,0.00,,,0.00,Wunderground v.1.15,2017-06-27 06:41:00,
2017-06-27 01:47:00,57.2,53.0,30.10,North,350,0.0,0.0,86,0.00,,,0.00,Wunderground v.1.15,2017-06-27 06:47:00,
2017-06-27 01:53:00,57.0,52.9,30.10,North,350,0.0,0.0,86,0.00,,,0.00,Wunderground v.1.15,2017-06-27 06:53:00,
2017-06-27 01:59:00,56.9,52.8,30.10,NNW,348,0.0,0.0,86,0.00,,,0.00,Wunderground v.1.15,2017-06-27 06:59:00,
2017-06-27 02:05:00,56.9,52.8,30.10,NNW,347,0.0,0.0,86,0.00,,,0.00,Wunderground v.1.15,2017-06-27 07:05:00,
2017-06-27 02:11:00,56.8,53.0,30.10,NNW,346,0.0,0.0,87,0.00,,,0.00,Wunderground v.1.15,2017-06-27 07:11:00,
2017-06-27 02:17:00,56.6,52.5,30.10,North,349,0.0,0.0,86,0.00,,,0.00,Wunderground v.1.15,2017-06-27 07:17:00,
2017-06-27 02:23:00,56.5,52.7,30.10,NNW,345,0.0,3.0,87,0.00,,,0.00,Wunderground v.1.15,2017-06-27 07:23:00,
2017-06-27 02:28:00,56.4,52.6,30.10,NNW,348,0.0,3.0,87,0.00,,,0.00,Wunderground v.1.15,2017-06-27 07:28:00,
2017-06-27 02:34:00,56.4,52.6,30.10,NNW,347,0.0,2.0,87,0.00,,,0.00,Wunderground v.1.15,2017-06-27 07:34:00,
2017-06-27 02:40:00,56.6,52.8,30.10,NNW,348,2.0,2.0,87,0.00,,,0.00,Wunderground v.1.15,2017-06-27 07:40:00,
2017-06-27 02:45:00,56.7,52.9,30.10,NNW,348,2.0,3.0,87,0.00,,,0.00,Wunderground v.1.15,2017-06-27 07:45:00,
2017-06-27 02:51:00,56.9,53.1,30.10,NNW,347,3.0,3.0,87,0.00,,,0.00,Wunderground v.1.15,2017-06-27 07:51:00,
2017-06-27 02:57:00,57.1,53.3,30.10,NNW,348,3.0,4.0,87,0.00,,,0.00,Wunderground v.1.15,2017-06-27 07:57:00,
2017-06-27 03:03:00,57.0,52.9,30.10,NNW,348,1.0,2.0,86,0.00,,,0.00,Wunderground v.1.15,2017-06-27 08:03:00,
2017-06-27 03:09:00,56.8,52.7,30.10,North,349,1.0,3.0,86,0.00,,,0.00,Wunderground v.1.15,2017-06-27 08:09:00,
2017-06-27 03:15:00,56.6,52.5,30.11,NNW,346,0.0,1.0,86,0.00,,,0.00,Wunderground v.1.15,2017-06-27 08:15:00,
2017-06-27 03:20:00,56.4,52.6,30.11,North,349,0.0,0.0,87,0.00,,,0.00,Wunderground v.1.15,2017-06-27 08:20:00,
2017-06-27 03:26:00,56.2,52.4,30.11,NNW,348,0.0,0.0,87,0.00,,,0.00,Wunderground v.1.15,2017-06-27 08:26:00,
2017-06-27 03:32:00,56.0,52.2,30.11,NNW,348,0.0,0.0,87,0.00,,,0.00,Wunderground v.1.15,2017-06-27 08:32:00,
2017-06-27 03:38:00,55.7,51.9,30.11,NNW,348,0.0,0.0,87,0.00,,,0.00,Wunderground v.1.15,2017-06-27 08:38:00,
2017-06-27 03:44:00,55.6,51.8,30.11,NNW,346,0.0,0.0,87,0.00,,,0.00,Wunderground v.1.15,2017-06-27 08:44:00,
2017-06-27 03:50:00,55.5,51.7,30.11,NNW,348,0.0,0.0,87,0.00,,,0.00,Wunderground v.1.15,2017-06-27 08:50:00,
2017-06-27 03:56:00,55.3,51.8,30.11,North,349,0.0,0.0,88,0.00,,,0.00,Wunderground v.1.15,2017-06-27 08:56:00,
2017-06-27 04:02:00,55.1,51.6,30.11,NNW,348,0.0,0.0,88,0.00,,,0.00,Wunderground v.1.15,2017-06-27 09:02:00,
2017-06-27 04:08:00,55.1,51.6,30.11,NNW,348,0.0,0.0,88,0.00,,,0.00,Wunderground v.1.15,2017-06-27 09:08:00,
2017-06-27 04:14:00,55.0,51.5,30.11,NNW,348,0.0,0.0,88,0.00,,,0.00,Wunderground v.1.15,2017-06-27 09:14:00,
2017-06-27 04:20:00,54.9,51.4,30.11,NNW,346,0.0,0.0,88,0.00,,,0.00,Wunderground v.1.15,2017-06-27 09:20:00,
2017-06-27 04:26:00,54.7,51.5,30.12,NNW,348,0.0,3.0,89,0.00,,,0.00,Wunderground v.1.15,2017-06-27 09:26:00,
2017-06-27 04:32:00,54.5,51.3,30.11,NNW,347,1.0,1.0,89,0.00,,,0.00,Wunderground v.1.15,2017-06-27 09:32:00,
2017-06-27 04:38:00,54.3,51.1,30.11,North,349,0.0,1.0,89,0.00,,,0.00,Wunderground v.1.15,2017-06-27 09:38:00,
2017-06-27 04:43:00,54.2,51.0,30.12,NNW,347,0.0,0.0,89,0.00,,,0.00,Wunderground v.1.15,2017-06-27 09:43:00,
2017-06-27 04:49:00,54.0,50.8,30.12,NNW,347,0.0,0.0,89,0.00,,,0.00,Wunderground v.1.15,2017-06-27 09:49:00,
2017-06-27 04:55:00,54.0,51.1,30.12,North,349,0.0,0.0,90,0.00,,,0.00,Wunderground v.1.15,2017-06-27 09:55:00,
2017-06-27 05:00:00,53.9,51.0,30.12,SE,141,0.0,0.0,90,0.00,,,0.00,Wunderground v.1.15,2017-06-27 10:00:00,
2017-06-27 05:06:00,53.8,50.9,30.12,NNW,347,0.0,0.0,90,0.00,,,0.00,Wunderground v.1.15,2017-06-27 10:06:00,
2017-06-27 05:12:00,53.7,50.8,30.11,North,350,0.0,0.0,90,0.00,,,0.00,Wunderground v.1.15,2017-06-27 10:12:00,
2017-06-27 05:18:00,53.7,51.1,30.12,NNW,346,0.0,0.0,91,0.00,,,0.00,Wunderground v.1.15,2017-06-27 10:18:00,
2017-06-27 05:24:00,53.6,51.0,30.12,NNW,347,1.0,2.0,91,0.00,,,0.00,Wunderground v.1.15,2017-06-27 10:24:00,
2017-06-27 05:30:00,53.7,51.1,30.12,NNW,348,1.0,2.0,91,0.00,,,0.00,Wunderground v.1.15,2017-06-27 10:30:00,
2017-06-27 05:36:00,53.8,51.2,30.12,NNW,343,1.0,3.0,91,0.00,,,0.00,Wunderground v.1.15,2017-06-27 10:36:00,
2017-06-27 05:42:00,53.9,51.3,30.12,NNW,348,2.0,2.0,91,0.00,,,0.00,Wunderground v.1.15,2017-06-27 10:42:00,
2017-06-27 05:48:00,54.0,51.4,30.12,North,350,1.0,2.0,91,0.00,,,0.00,Wunderground v.1.15,2017-06-27 10:48:00,
2017-06-27 05:54:00,54.0,51.4,30.13,NNW,348,0.0,1.0,91,0.00,,,0.00,Wunderground v.1.15,2017-06-27 10:54:00,
2017-06-27 06:00:00,53.9,51.6,30.13,NNW,348,1.0,3.0,92,0.00,,,0.00,Wunderground v.1.15,2017-06-27 11:00:00,
2017-06-27 06:12:00,54.4,52.1,30.13,North,349,0.0,0.0,92,0.00,,,0.00,Wunderground v.1.15,2017-06-27 11:12:00,
2017-06-27 06:18:00,54.9,52.6,30.13,NNW,348,0.0,2.0,92,0.00,,,0.00,Wunderground v.1.15,2017-06-27 11:18:00,
2017-06-27 06:24:00,55.7,53.7,30.13,NNW,347,0.0,1.0,93,0.00,,,0.00,Wunderground v.1.15,2017-06-27 11:24:00,
2017-06-27 06:30:00,56.4,54.4,30.13,NNW,348,0.0,1.0,93,0.00,,,0.00,Wunderground v.1.15,2017-06-27 11:30:00,
2017-06-27 06:35:00,57.0,54.7,30.13,North,349,1.0,2.0,92,0.00,,,0.00,Wunderground v.1.15,2017-06-27 11:35:00,
2017-06-27 06:41:00,57.5,54.9,30.13,NNW,347,1.0,3.0,91,0.00,,,0.00,Wunderground v.1.15,2017-06-27 11:41:00,
2017-06-27 06:47:00,58.3,55.7,30.13,North,349,1.0,3.0,91,0.00,,,0.00,Wunderground v.1.15,2017-06-27 11:47:00,
2017-06-27 06:52:00,58.9,56.0,30.14,NNW,347,0.0,0.0,90,0.00,,,0.00,Wunderground v.1.15,2017-06-27 11:52:00,
2017-06-27 06:58:00,59.5,56.3,30.14,NNW,346,0.0,0.0,89,0.00,,,0.00,Wunderground v.1.15,2017-06-27 11:58:00,
2017-06-27 07:04:00,59.9,56.0,30.13,NNW,346,0.0,2.0,87,0.00,,,0.00,Wunderground v.1.15,2017-06-27 12:04:00,
2017-06-27 07:10:00,60.1,55.6,30.13,NNW,348,1.0,3.0,85,0.00,,,0.00,Wunderground v.1.15,2017-06-27 12:10:00,
2017-06-27 07:16:00,60.8,55.9,30.14,North,350,1.0,3.0,84,0.00,,,0.00,Wunderground v.1.15,2017-06-27 12:16:00,
2017-06-27 07:22:00,61.5,55.6,30.14,North,350,1.0,3.0,81,0.00,,,0.00,Wunderground v.1.15,2017-06-27 12:22:00,
2017-06-27 07:28:00,62.3,55.0,30.14,NNW,346,2.0,3.0,77,0.00,,,0.00,Wunderground v.1.15,2017-06-27 12:28:00,
2017-06-27 07:34:00,63.0,54.9,30.14,NNW,348,2.0,4.0,75,0.00,,,0.00,Wunderground v.1.15,2017-06-27 12:34:00,
2017-06-27 07:39:00,63.5,55.1,30.14,NNW,348,2.0,4.0,74,0.00,,,0.00,Wunderground v.1.15,2017-06-27 12:39:00,
2017-06-27 07:45:00,64.1,55.3,30.14,NNW,346,1.0,2.0,73,0.00,,,0.00,Wunderground v.1.15,2017-06-27 12:45:00,
2017-06-27 07:51:00,64.6,55.4,30.14,NNW,348,1.0,2.0,72,0.00,,,0.00,Wunderground v.1.15,2017-06-27 12:51:00,
2017-06-27 07:57:00,65.0,55.8,30.14,NNW,348,1.0,2.0,72,0.00,,,0.00,Wunderground v.1.15,2017-06-27 12:57:00,
2017-06-27 08:03:00,65.4,55.4,30.15,NNW,347,1.0,2.0,70,0.00,,,0.00,Wunderground v.1.15,2017-06-27 13:03:00,
2017-06-27 08:09:00,65.6,55.5,30.14,NNW,343,1.0,2.0,70,0.00,,,0.00,Wunderground v.1.15,2017-06-27 13:09:00,
2017-06-27 08:15:00,65.7,55.6,30.14,NNW,348,2.0,4.0,70,0.00,,,0.00,Wunderground v.1.15,2017-06-27 13:15:00,
2017-06-27 08:21:00,65.9,55.4,30.14,North,349,3.0,3.0,69,0.00,,,0.00,Wunderground v.1.15,2017-06-27 13:21:00,
2017-06-27 08:27:00,65.9,55.0,30.15,North,349,3.0,5.0,68,0.00,,,0.00,Wunderground v.1.15,2017-06-27 13:27:00,
2017-06-27 08:33:00,65.7,55.6,30.14,NNW,347,4.0,6.0,70,0.00,,,0.00,Wunderground v.1.15,2017-06-27 13:33:00,
2017-06-27 08:39:00,65.9,55.4,30.15,NNW,348,4.0,6.0,69,0.00,,,0.00,Wunderground v.1.15,2017-06-27 13:39:00,
2017-06-27 08:45:00,66.5,56.4,30.15,NNW,346,3.0,4.0,70,0.00,,,0.00,Wunderground v.1.15,2017-06-27 13:45:00,
2017-06-27 08:51:00,66.6,55.3,30.15,NNW,348,3.0,6.0,67,0.00,,,0.00,Wunderground v.1.15,2017-06-27 13:51:00,
2017-06-27 08:57:00,66.3,55.4,30.15,NNW,348,4.0,7.0,68,0.00,,,0.00,Wunderground v.1.15,2017-06-27 13:57:00,
2017-06-27 09:02:00,66.8,55.9,30.15,NNW,348,3.0,5.0,68,0.00,,,0.00,Wunderground v.1.15,2017-06-27 14:02:00,
2017-06-27 09:08:00,67.3,56.4,30.15,NNW,348,2.0,5.0,68,0.00,,,0.00,Wunderground v.1.15,2017-06-27 14:08:00,
2017-06-27 09:14:00,67.5,55.3,30.15,North,354,2.0,5.0,65,0.00,,,0.00,Wunderground v.1.15,2017-06-27 14:14:00,
2017-06-27 09:20:00,67.4,55.6,30.15,North,356,4.0,4.0,66,0.00,,,0.00,Wunderground v.1.15,2017-06-27 14:20:00,
2017-06-27 09:26:00,67.8,56.0,30.15,North,356,3.0,5.0,66,0.00,,,0.00,Wunderground v.1.15,2017-06-27 14:26:00,
2017-06-27 09:32:00,68.0,56.2,30.15,North,358,3.0,5.0,66,0.00,,,0.00,Wunderground v.1.15,2017-06-27 14:32:00,
2017-06-27 09:38:00,68.4,56.6,30.15,North,358,4.0,5.0,66,0.00,,,0.00,Wunderground v.1.15,2017-06-27 14:38:00,
2017-06-27 09:44:00,69.0,56.3,30.15,North,5,3.0,6.0,64,0.00,,,0.00,Wunderground v.1.15,2017-06-27 14:44:00,
2017-06-27 09:50:00,69.3,56.6,30.15,North,5,4.0,4.0,64,0.00,,,0.00,Wunderground v.1.15,2017-06-27 14:50:00,
2017-06-27 09:55:00,69.4,55.8,30.14,North,6,3.0,8.0,62,0.00,,,0.00,Wunderground v.1.15,2017-06-27 14:55:00,
2017-06-27 10:00:00,69.4,55.8,30.14,North,6,3.0,3.0,62,0.00,,,0.00,Wunderground v.1.15,2017-06-27 15:00:00,
2017-06-27 10:06:00,69.5,56.3,30.14,North,8,2.0,6.0,63,0.00,,,0.00,Wunderground v.1.15,2017-06-27 15:06:00,
2017-06-27 10:12:00,69.8,55.7,30.14,NNE,12,3.0,6.0,61,0.00,,,0.00,Wunderground v.1.15,2017-06-27 15:12:00,
2017-06-27 10:18:00,70.1,56.5,30.14,SE,141,3.0,6.0,62,0.00,,,0.00,Wunderground v.1.15,2017-06-27 15:18:00,
2017-06-27 10:24:00,70.2,56.1,30.14,NNE,12,2.0,7.0,61,0.00,,,0.00,Wunderground v.1.15,2017-06-27 15:24:00,
2017-06-27 10:30:00,69.7,56.1,30.14,North,9,3.0,4.0,62,0.00,,,0.00,Wunderground v.1.15,2017-06-27 15:30:00,
2017-06-27 10:36:00,70.1,56.5,30.14,NNE,12,3.0,6.0,62,0.00,,,0.00,Wunderground v.1.15,2017-06-27 15:36:00,
2017-06-27 10:42:00,70.1,56.0,30.14,NNE,13,3.0,3.0,61,0.00,,,0.00,Wunderground v.1.15,2017-06-27 15:42:00,
2017-06-27 10:48:00,70.8,55.8,30.14,NNE,13,1.0,3.0,59,0.00,,,0.00,Wunderground v.1.15,2017-06-27 15:48:00,
2017-06-27 10:54:00,71.4,56.3,30.13,NNE,13,1.0,6.0,59,0.00,,,0.00,Wunderground v.1.15,2017-06-27 15:54:00,
2017-06-27 11:00:00,71.5,54.5,30.13,NNE,12,2.0,2.0,55,0.00,,,0.00,Wunderground v.1.15,2017-06-27 16:00:00,
2017-06-27 11:06:00,71.3,55.8,30.13,NNE,13,3.0,5.0,58,0.00,,,0.00,Wunderground v.1.15,2017-06-27 16:06:00,
2017-06-27 11:12:00,71.2,54.2,30.13,North,11,3.0,5.0,55,0.00,,,0.00,Wunderground v.1.15,2017-06-27 16:12:00,
2017-06-27 11:18:00,71.3,52.2,30.14,North,10,4.0,5.0,51,0.00,,,0.00,Wunderground v.1.15,2017-06-27 16:18:00,
2017-06-27 11:24:00,72.0,54.9,30.13,NNE,12,2.0,4.0,55,0.00,,,0.00,Wunderground v.1.15,2017-06-27 16:24:00,
2017-06-27 11:30:00,73.2,54.0,30.13,NNE,13,1.0,4.0,51,0.00,,,0.00,Wunderground v.1.15,2017-06-27 16:30:00,
2017-06-27 11:35:00,72.9,54.2,30.13,North,11,2.0,5.0,52,0.00,,,0.00,Wunderground v.1.15,2017-06-27 16:35:00,
2017-06-27 11:41:00,72.6,52.3,30.13,NNE,13,2.0,2.0,49,0.00,,,0.00,Wunderground v.1.15,2017-06-27 16:41:00,
2017-06-27 11:47:00,72.2,52.5,30.13,NNE,13,1.0,3.0,50,0.00,,,0.00,Wunderground v.1.15,2017-06-27 16:47:00,
2017-06-27 11:53:00,71.6,52.5,30.12,North,8,1.0,2.0,51,0.00,,,0.00,Wunderground v.1.15,2017-06-27 16:53:00,
2017-06-27 11:59:00,71.6,54.1,30.12,NNE,13,0.0,2.0,54,0.00,,,0.00,Wunderground v.1.15,2017-06-27 16:59:00,
2017-06-27 12:05:00,71.7,53.1,30.12,North,10,1.0,3.0,52,0.00,,,0.00,Wunderground v.1.15,2017-06-27 17:05:00,
2017-06-27 12:11:00,71.7,53.1,30.12,NNE,12,3.0,3.0,52,0.00,,,0.00,Wunderground v.1.15,2017-06-27 17:11:00,
2017-06-27 12:16:00,72.3,53.2,30.12,NNE,16,2.0,3.0,51,0.00,,,0.00,Wunderground v.1.15,2017-06-27 17:16:00,
2017-06-27 12:22:00,73.2,52.3,30.12,NNE,12,1.0,1.0,48,0.00,,,0.00,Wunderground v.1.15,2017-06-27 17:22:00,
2017-06-27 12:28:00,74.0,51.9,30.12,NNE,12,2.0,3.0,46,0.00,,,0.00,Wunderground v.1.15,2017-06-27 17:28:00,
2017-06-27 12:34:00,74.3,52.2,30.12,NNE,12,2.0,4.0,46,0.00,,,0.00,Wunderground v.1.15,2017-06-27 17:34:00,
2017-06-27 12:40:00,73.9,51.8,30.12,NNE,13,3.0,3.0,46,0.00,,,0.00,Wunderground v.1.15,2017-06-27 17:40:00,
2017-06-27 12:46:00,73.5,53.7,30.11,North,10,3.0,4.0,50,0.00,,,0.00,Wunderground v.1.15,2017-06-27 17:46:00,
2017-06-27 12:52:00,73.8,52.9,30.11,North,11,2.0,4.0,48,0.00,,,0.00,Wunderground v.1.15,2017-06-27 17:52:00,
2017-06-27 12:58:00,74.6,51.9,30.11,NNE,12,1.0,4.0,45,0.00,,,0.00,Wunderground v.1.15,2017-06-27 17:58:00,
2017-06-27 13:04:00,74.5,51.8,30.11,SE,141,2.0,5.0,45,0.00,,,0.00,Wunderground v.1.15,2017-06-27 18:04:00,
2017-06-27 13:10:00,74.5,53.5,30.11,North,11,2.0,2.0,48,0.00,,,0.00,Wunderground v.1.15,2017-06-27 18:10:00,
2017-06-27 13:15:00,75.0,53.4,30.11,NNE,12,1.0,3.0,47,0.00,,,0.00,Wunderground v.1.15,2017-06-27 18:15:00,
2017-06-27 13:21:00,74.9,52.1,30.11,North,11,3.0,3.0,45,0.00,,,0.00,Wunderground v.1.15,2017-06-27 18:21:00,
2017-06-27 13:27:00,74.7,53.7,30.11,North,10,3.0,3.0,48,0.00,,,0.00,Wunderground v.1.15,2017-06-27 18:27:00,
2017-06-27 13:33:00,74.5,52.4,30.10,NNE,12,1.0,3.0,46,0.00,,,0.00,Wunderground v.1.15,2017-06-27 18:33:00,
2017-06-27 13:39:00,74.6,52.4,30.10,North,11,2.0,6.0,46,0.00,,,0.00,Wunderground v.1.15,2017-06-27 18:39:00,
2017-06-27 13:44:00,74.5,52.9,30.10,NNE,12,2.0,3.0,47,0.00,,,0.00,Wunderground v.1.15,2017-06-27 18:44:00,
2017-06-27 13:50:00,75.4,52.6,30.10,NNE,13,2.0,3.0,45,0.00,,,0.00,Wunderground v.1.15,2017-06-27 18:50:00,
2017-06-27 13:56:00,75.7,52.2,30.09,NNE,13,2.0,3.0,44,0.00,,,0.00,Wunderground v.1.15,2017-06-27 18:56:00,
2017-06-27 14:02:00,75.2,52.4,30.09,NNE,16,1.0,3.0,45,0.00,,,0.00,Wunderground v.1.15,2017-06-27 19:02:00,
2017-06-27 14:08:00,75.3,53.1,30.09,NNE,15,2.0,4.0,46,0.00,,,0.00,Wunderground v.1.15,2017-06-27 19:08:00,
2017-06-27 14:13:00,75.6,52.8,30.08,North,10,2.0,3.0,45,0.00,,,0.00,Wunderground v.1.15,2017-06-27 19:13:00,
2017-06-27 14:19:00,75.7,53.4,30.08,NNE,12,2.0,4.0,46,0.00,,,0.00,Wunderground v.1.15,2017-06-27 19:19:00,
2017-06-27 14:25:00,75.8,54.1,30.08,NNE,13,2.0,7.0,47,0.00,,,0.00,Wunderground v.1.15,2017-06-27 19:25:00,
2017-06-27 14:31:00,76.1,53.2,30.08,NNE,12,2.0,4.0,45,0.00,,,0.00,Wunderground v.1.15,2017-06-27 19:31:00,
2017-06-27 14:37:00,76.9,51.4,30.08,NNE,12,2.0,4.0,41,0.00,,,0.00,Wunderground v.1.15,2017-06-27 19:37:00,
2017-06-27 14:43:00,76.9,53.3,30.07,NNE,12,2.0,2.0,44,0.00,,,0.00,Wunderground v.1.15,2017-06-27 19:43:00,
2017-06-27 14:49:00,77.2,51.0,30.07,NNE,13,1.0,3.0,40,0.00,,,0.00,Wunderground v.1.15,2017-06-27 19:49:00,
2017-06-27 14:54:00,77.6,53.3,30.07,NNE,13,1.0,3.0,43,0.00,,,0.00,Wunderground v.1.15,2017-06-27 19:54:00,
2017-06-27 15:00:00,76.9,52.1,30.06,NNE,15,2.0,2.0,42,0.00,,,0.00,Wunderground v.1.15,2017-06-27 20:00:00,